[[{"header":{"parameterUnit":"m.s-1","parameterCategory":1,"la1":30.2991,"la2":30.254,"lo1":-89.0895,"lo2":-89.0444,"dy":0.0017,"dx":0.0017,"nx":28,"ny":28,"refTime":"2024-04-23T09:00:00:Z","depth":0,"parameterNumber":2,"parameterNumberName":"U-component_of_WINDS"},"data":[0,0,0,0,0,0,0,0,0,0,0,0,0,0,0,0,0,0,0,0,0,0,0,0,0,0,0,0,0,0,0,0,0,0,0,0,0,0,0,0,0,0,0,0,0,0,0,0,0,0,0,0,0,0,0,0,0,0,-1.6215,-1.6216,0,-1.6278,-1.6279,-1.628,-1.6287,-1.6286,-1.6286,-1.6285,-1.6347,-1.6349,-1.6351,0,0,0,0,0,0,0,0,0,0,0,0,0,-1.6098,-1.61,-1.6215,-1.6216,-1.6217,-1.6278,-1.6279,-1.628,-1.6287,-1.6286,-1.6286,-1.6285,-1.6346,-1.6349,-1.6351,0,0,0,0,0,0,0,0,0,0,0,0,0,-1.6154,-1.6101,-1.6215,-1.6228,-1.623,-1.6278,-1.6279,-1.628,-1.6287,-1.6286,-1.6285,-1.6284,-1.6345,-1.6348,-1.6352,-1.6391,0,0,-1.6362,-1.6363,0,0,0,0,0,0,0,0,-1.6151,-1.6158,-1.6225,-1.6227,-1.6229,-1.6274,-1.626,-1.6317,-1.6287,-1.6265,-1.6285,-1.6284,-1.6323,-1.6328,-1.6342,-1.6394,-1.6396,-1.6362,-1.6364,-1.6365,-1.6366,0,0,0,0,0,0,0,-1.6147,-1.6155,-1.624,-1.6226,-1.6229,-1.6229,-1.6236,-1.6271,-1.6298,-1.6267,-1.6268,-1.6275,-1.6324,-1.6339,-1.6343,-1.6397,-1.6362,-1.6365,-1.6367,-1.6368,-1.6483,-1.6484,0,0,0,0,0,0,-1.6141,-1.6152,-1.6238,-1.6242,-1.6187,-1.6232,-1.624,-1.626,-1.6298,-1.6303,-1.6276,-1.6275,-1.6333,-1.6339,-1.6345,-1.6393,-1.6365,-1.6369,-1.637,-1.6482,-1.6483,-1.6484,0,0,0,0,0,0,-1.6138,-1.6149,-1.6236,-1.6197,-1.6208,-1.6235,-1.6258,-1.6262,-1.6277,-1.6305,-1.6309,-1.6286,-1.6333,-1.6341,-1.6379,-1.6395,-1.637,-1.6373,-1.6481,-1.6482,-1.6484,-1.6488,0,0,0,0,0,0,-1.6135,-1.6148,-1.6163,-1.6198,-1.621,-1.6269,-1.6259,-1.6264,-1.6283,-1.6283,-1.6316,-1.632,-1.6333,-1.6374,-1.6383,-1.6399,-1.6376,-1.6479,-1.6481,-1.6483,-1.6486,-1.6489,-1.6492,0,0,0,0,0,-1.6131,-1.6162,-1.6164,-1.6174,-1.6231,-1.627,-1.6277,-1.6292,-1.6284,-1.63,-1.6318,-1.6319,-1.6392,-1.6378,-1.6388,-1.6405,-1.6478,-1.6481,-1.6483,-1.6485,-1.6489,-1.6492,0,0,0,0,0,0,-1.6127,-1.6166,-1.6169,-1.6213,-1.6238,-1.6271,-1.6291,-1.6295,-1.6323,-1.6321,-1.6338,-1.6345,-1.6382,-1.6398,-1.6382,-1.6444,-1.6434,-1.6439,-1.6433,-1.6436,-1.6439,-1.6433,-1.6378,0,0,0,0,0,-1.6132,-1.6161,-1.6193,-1.6228,-1.6241,-1.6264,-1.6282,-1.6291,-1.6317,-1.6328,-1.6349,-1.6374,-1.6402,-1.642,-1.6448,-1.6489,-1.6496,-1.6506,-1.6509,-1.6511,-1.6514,-1.6535,-1.654,-1.6492,-1.6492,-1.6492,0,0,-1.6141,-1.6166,-1.6183,-1.6228,-1.6249,-1.6278,-1.6273,-1.6304,-1.6325,-1.6332,-1.637,-1.6386,-1.6415,-1.6454,-1.6473,-1.6468,-1.6529,-1.6514,-1.6515,-1.6517,-1.6538,-1.6542,-1.6546,-1.6494,-1.6493,-1.6493,0,0,-1.6172,-1.6194,-1.6225,-1.6246,-1.6278,-1.6294,-1.6301,-1.6334,-1.6345,-1.6383,-1.6389,-1.6414,-1.6463,-1.6483,-1.65,-1.6539,-1.654,-1.6547,-1.6561,-1.6582,-1.6585,-1.6589,-1.6601,-1.6605,-1.6551,-1.6551,-1.6551,0,-1.6178,-1.6223,-1.624,-1.6271,-1.629,-1.6299,-1.633,-1.6349,-1.6388,-1.6401,-1.6396,-1.6457,-1.6477,-1.6521,-1.6531,-1.6544,-1.6552,-1.6543,-1.6584,-1.6587,-1.6591,-1.6602,-1.6607,-1.6551,-1.6551,-1.6551,-1.6551,0,-1.6229,-1.626,-1.6281,-1.6319,-1.6341,-1.6371,-1.6392,-1.6412,-1.6419,-1.6435,-1.6473,-1.6498,-1.653,-1.6542,-1.6549,-1.6586,-1.6582,-1.6581,-1.657,-1.6595,-1.6607,-1.6611,-1.6552,-1.6552,-1.6552,-1.6551,0,0,-1.6258,-1.6306,-1.6313,-1.633,-1.6366,-1.639,-1.6421,-1.6454,-1.6469,-1.6496,-1.6521,-1.6563,-1.6561,-1.658,-1.659,-1.6609,-1.6636,-1.6604,-1.6605,-1.6608,-1.6677,-1.6677,-1.6682,-1.6638,-1.6639,-1.664,-1.6674,0,-1.6292,-1.6347,-1.6363,-1.641,-1.6438,-1.6447,-1.6474,-1.6498,-1.6514,-1.6539,-1.6556,-1.6584,-1.6581,-1.6592,-1.6611,-1.6629,-1.665,-1.6627,-1.666,-1.6661,-1.6651,-1.6688,-1.6688,-1.6718,-1.6678,-1.6679,-1.668,0,-1.6338,-1.6366,-1.6415,-1.6447,-1.646,-1.6483,-1.6514,-1.6539,-1.6567,-1.6577,-1.6598,-1.6606,-1.6638,-1.6627,-1.667,-1.6654,-1.6669,-1.668,-1.6681,-1.6683,-1.6671,-1.6689,-1.6729,-1.6732,-1.6687,-1.6687,-1.6686,0,-1.6352,-1.6402,-1.6438,-1.6453,-1.6491,-1.6508,-1.6524,-1.6551,-1.657,-1.6597,-1.6609,-1.6639,-1.6655,-1.6678,-1.6694,-1.6685,-1.6734,-1.6726,-1.6742,-1.6741,-1.675,-1.6749,-1.6791,-1.6763,-1.6763,-1.6763,-1.6763,0,-1.6386,-1.6415,-1.6445,-1.6466,-1.6499,-1.6518,-1.6549,-1.6566,-1.659,-1.6615,-1.6625,-1.6648,-1.6668,-1.6693,-1.6706,-1.6738,-1.6746,-1.6754,-1.6756,-1.6752,-1.6751,-1.676,-1.6758,-1.6764,-1.6764,-1.6764,-1.6763,0,-1.6406,-1.6427,-1.6467,-1.6501,-1.651,-1.6532,-1.6561,-1.6582,-1.6598,-1.6629,-1.6637,-1.6662,-1.6692,-1.6711,-1.6749,-1.6757,-1.6792,-1.6795,-1.6783,-1.6784,-1.6799,-1.6796,-1.6846,-1.6853,-1.6823,-1.6823,-1.6823,0,-1.6426,-1.6449,-1.6485,-1.6503,-1.652,-1.6548,-1.6567,-1.6586,-1.6606,-1.6639,-1.6656,-1.6687,-1.6712,-1.676,-1.6781,-1.681,-1.6812,-1.6828,-1.6816,-1.6811,-1.681,-1.6808,-1.681,-1.6829,-1.6829,-1.6829,-1.6829,0,-1.6458,-1.6467,-1.6495,-1.6526,-1.6549,-1.6574,-1.66,-1.6613,-1.6636,-1.6657,-1.6689,-1.6709,-1.6748,-1.6778,-1.6809,-1.6825,-1.6831,-1.6833,-1.6838,-1.6833,-1.6824,-1.6827,-1.6786,-1.6831,-1.6831,-1.6831,-1.6831,-1.6831,-1.6477,-1.6498,-1.6527,-1.6557,-1.6578,-1.6601,-1.6623,-1.6642,-1.6669,-1.6702,-1.6712,-1.6744,-1.6771,-1.6813,-1.683,-1.6855,-1.6853,-1.6861,-1.6862,-1.6863,-1.6863,-1.6822,-1.6861,-1.6861,-1.6861,-1.6861,-1.6861,0,-1.6509,-1.6528,-1.6556,-1.6591,-1.6614,-1.6619,-1.6647,-1.6666,-1.6695,-1.672,-1.6745,-1.6781,-1.681,-1.6834,-1.6864,-1.6879,-1.6882,-1.6886,-1.6884,-1.6888,-1.6864,-1.6856,-1.6883,-1.6883,-1.6883,-1.6883,-1.6883,-1.6883,-1.6527,-1.6562,-1.6574,-1.6619,-1.6638,-1.667,-1.6686,-1.6707,-1.6727,-1.6766,-1.6791,-1.6807,-1.6831,-1.6863,-1.689,-1.6896,-1.6906,-1.6909,-1.6915,-1.6892,-1.6889,-1.6887,-1.6879,-1.6911,-1.6911,-1.6937,-1.6937,-1.6937]},{"header":{"parameterUnit":"m.s-1","parameterCategory":1,"la1":30.2991,"la2":30.254,"lo1":-89.0895,"lo2":-89.0444,"dy":0.0017,"dx":0.0017,"nx":28,"ny":28,"refTime":"2024-04-23T09:00:00:Z","depth":0,"parameterNumber":3,"parameterNumberName":"V-component_of_WINDS"},"data":[0,0,0,0,0,0,0,0,0,0,0,0,0,0,0,0,0,0,0,0,0,0,0,0,0,0,0,0,0,0,0,0,0,0,0,0,0,0,0,0,0,0,0,0,0,0,0,0,0,0,0,0,0,0,0,0,0,0,-1.1748,-1.175,0,-1.1895,-1.1897,-1.1898,-1.1982,-1.1983,-1.1983,-1.1983,-1.2131,-1.2134,-1.2138,0,0,0,0,0,0,0,0,0,0,0,0,0,-1.1538,-1.1541,-1.1748,-1.175,-1.1752,-1.1895,-1.1897,-1.1899,-1.1982,-1.1983,-1.1983,-1.1983,-1.213,-1.2134,-1.2138,0,0,0,0,0,0,0,0,0,0,0,0,0,-1.1651,-1.1542,-1.1748,-1.1811,-1.1818,-1.1894,-1.1897,-1.1899,-1.1982,-1.1983,-1.1983,-1.1984,-1.2128,-1.2134,-1.2139,-1.2163,0,0,-1.2156,-1.2158,0,0,0,0,0,0,0,0,-1.1645,-1.1659,-1.18,-1.1807,-1.1815,-1.1921,-1.1877,-1.1988,-1.1982,-1.192,-1.1983,-1.1984,-1.2061,-1.2072,-1.2098,-1.217,-1.2177,-1.2156,-1.2159,-1.2162,-1.2163,0,0,0,0,0,0,0,-1.1637,-1.1653,-1.1806,-1.1802,-1.1811,-1.1831,-1.1848,-1.1898,-1.1986,-1.1925,-1.1932,-1.1948,-1.2065,-1.2093,-1.2102,-1.2179,-1.2156,-1.2161,-1.2164,-1.2166,-1.2279,-1.2279,0,0,0,0,0,0,-1.1619,-1.1646,-1.1801,-1.1811,-1.1729,-1.1834,-1.1853,-1.1886,-1.1985,-1.2001,-1.1948,-1.1951,-1.2083,-1.2096,-1.2108,-1.2143,-1.2162,-1.2167,-1.217,-1.2279,-1.2279,-1.2279,0,0,0,0,0,0,-1.1614,-1.1632,-1.1796,-1.173,-1.1752,-1.1838,-1.1874,-1.1889,-1.1917,-1.2002,-1.2018,-1.196,-1.2084,-1.21,-1.2149,-1.2149,-1.2169,-1.2174,-1.228,-1.2279,-1.2279,-1.2213,0,0,0,0,0,0,-1.1608,-1.163,-1.164,-1.173,-1.1756,-1.1835,-1.1874,-1.1891,-1.1926,-1.1933,-1.2018,-1.2033,-1.2085,-1.2141,-1.2155,-1.2157,-1.2179,-1.228,-1.2279,-1.2279,-1.2216,-1.221,-1.2206,0,0,0,0,0,-1.16,-1.1615,-1.164,-1.1659,-1.1771,-1.1835,-1.185,-1.1911,-1.1926,-1.1937,-1.1992,-1.203,-1.2147,-1.2145,-1.2161,-1.2165,-1.228,-1.228,-1.2279,-1.2218,-1.2211,-1.2206,0,0,0,0,0,0,-1.1522,-1.1628,-1.1657,-1.1702,-1.1759,-1.1849,-1.1864,-1.1902,-1.1955,-1.1959,-1.2032,-1.205,-1.2092,-1.2134,-1.213,-1.2195,-1.2218,-1.222,-1.2166,-1.216,-1.2156,-1.2144,-1.2183,0,0,0,0,0,-1.1511,-1.1555,-1.1645,-1.1675,-1.1703,-1.1778,-1.1809,-1.1851,-1.1913,-1.1937,-1.1995,-1.2053,-1.2103,-1.2134,-1.2185,-1.2222,-1.2242,-1.2233,-1.2229,-1.2224,-1.2225,-1.2249,-1.2246,-1.2277,-1.2277,-1.2277,0,0,-1.1486,-1.155,-1.1573,-1.1661,-1.171,-1.1754,-1.1798,-1.1842,-1.1875,-1.1943,-1.1994,-1.2039,-1.2108,-1.2151,-1.2173,-1.2187,-1.2221,-1.2223,-1.2219,-1.2223,-1.2248,-1.2245,-1.2242,-1.2276,-1.2276,-1.2276,0,0,-1.1464,-1.1517,-1.1549,-1.1597,-1.1672,-1.1722,-1.173,-1.1815,-1.1847,-1.1899,-1.1952,-1.1992,-1.2076,-1.2123,-1.2158,-1.2156,-1.2192,-1.217,-1.2144,-1.2166,-1.2164,-1.2162,-1.2161,-1.2159,-1.2171,-1.2171,-1.2171,0,-1.1424,-1.1493,-1.156,-1.1601,-1.1638,-1.1704,-1.1736,-1.178,-1.1866,-1.189,-1.1905,-1.2013,-1.2064,-1.212,-1.2119,-1.2145,-1.2156,-1.216,-1.2159,-1.2158,-1.2157,-1.2157,-1.2156,-1.2168,-1.2168,-1.2168,-1.2169,0,-1.144,-1.1487,-1.1503,-1.1586,-1.1626,-1.1662,-1.1734,-1.1765,-1.1805,-1.1854,-1.1906,-1.197,-1.2035,-1.2051,-1.2089,-1.2113,-1.2119,-1.2145,-1.217,-1.215,-1.2151,-1.2151,-1.2163,-1.2164,-1.2165,-1.2166,0,0,-1.1371,-1.1493,-1.1497,-1.1536,-1.1624,-1.1661,-1.17,-1.1765,-1.179,-1.1848,-1.1883,-1.1953,-1.1979,-1.2018,-1.2063,-1.2082,-1.2076,-1.2107,-1.2109,-1.2098,-1.2105,-1.2084,-1.2082,-1.2101,-1.2101,-1.2102,-1.2099,0,-1.1362,-1.1437,-1.1499,-1.155,-1.1594,-1.1658,-1.1692,-1.1749,-1.1796,-1.184,-1.1891,-1.194,-1.197,-1.1995,-1.2017,-1.2072,-1.2078,-1.2073,-1.2133,-1.2135,-1.2113,-1.2083,-1.2061,-1.2055,-1.21,-1.21,-1.21,0,-1.136,-1.1416,-1.1472,-1.1556,-1.1577,-1.1607,-1.1672,-1.1713,-1.1779,-1.1812,-1.1857,-1.1903,-1.1948,-1.1969,-1.2031,-1.2026,-1.2054,-1.2085,-1.2087,-1.2094,-1.2115,-1.2089,-1.2055,-1.2053,-1.2101,-1.2101,-1.2101,0,-1.1303,-1.1394,-1.1439,-1.1471,-1.157,-1.1589,-1.1631,-1.1698,-1.1733,-1.179,-1.1813,-1.1873,-1.1906,-1.1951,-1.2013,-1.2023,-1.2068,-1.2095,-1.2096,-1.2095,-1.2102,-1.21,-1.2071,-1.2122,-1.2122,-1.2122,-1.2122,0,-1.1285,-1.1317,-1.1415,-1.1443,-1.1481,-1.1552,-1.1587,-1.1634,-1.1693,-1.1731,-1.179,-1.1824,-1.1904,-1.1947,-1.1996,-1.2039,-1.2054,-1.2081,-1.2094,-1.2076,-1.2072,-1.2094,-1.2096,-1.2121,-1.2121,-1.2121,-1.2122,0,-1.1228,-1.1295,-1.1349,-1.1439,-1.1463,-1.1486,-1.1563,-1.1592,-1.1643,-1.169,-1.1706,-1.1785,-1.184,-1.1906,-1.1982,-1.2015,-1.2053,-1.2072,-1.2031,-1.2038,-1.2036,-1.2035,-1.2019,-1.2021,-1.207,-1.2069,-1.2069,0,-1.1211,-1.1237,-1.1331,-1.1361,-1.1402,-1.1449,-1.1486,-1.1557,-1.1593,-1.1671,-1.169,-1.175,-1.1801,-1.1885,-1.1949,-1.2007,-1.2028,-1.2019,-1.2037,-1.2018,-1.2027,-1.2024,-1.2027,-1.2013,-1.2012,-1.2011,-1.2011,0,-1.1174,-1.1207,-1.1258,-1.1321,-1.1363,-1.1416,-1.1471,-1.1492,-1.1575,-1.1612,-1.1669,-1.1709,-1.1787,-1.1845,-1.1912,-1.1955,-1.1996,-1.2005,-1.2008,-1.199,-1.1964,-1.1977,-1.2017,-1.2005,-1.2005,-1.2006,-1.2006,-1.2006,-1.1136,-1.1163,-1.1233,-1.1288,-1.1338,-1.1388,-1.142,-1.1476,-1.1525,-1.1595,-1.1634,-1.169,-1.1757,-1.1851,-1.1892,-1.1937,-1.1952,-1.1957,-1.1958,-1.1958,-1.1952,-1.1958,-1.1949,-1.195,-1.195,-1.195,-1.195,0,-1.1102,-1.1151,-1.1201,-1.1277,-1.132,-1.1358,-1.1421,-1.1455,-1.1504,-1.1563,-1.1612,-1.1678,-1.1735,-1.1804,-1.1866,-1.1888,-1.1909,-1.1902,-1.19,-1.1909,-1.1935,-1.1926,-1.1884,-1.1884,-1.1884,-1.1884,-1.1884,-1.1884,-1.1089,-1.1136,-1.1176,-1.1248,-1.1297,-1.1353,-1.1386,-1.1433,-1.1481,-1.1552,-1.16,-1.1645,-1.1709,-1.1776,-1.1829,-1.1849,-1.1868,-1.1855,-1.1879,-1.1902,-1.1908,-1.1913,-1.1905,-1.1859,-1.1859,-1.185,-1.185,-1.185]}]]